Weather in Kizilskoe

Russia / Chelyabinsk Oblast     52°43′22″N   58°53′58″E
temp.,
°C
wind,
m/s
gust,
m/s
humid.,
%
clouds,
%
prec.,
mm/h
press.,
hPa
HPBL,
m
13 may, thu
thu1323:00+17ssw22360 0.0 102813
02:00+14w22430 0.0 102812
05:00+13nw11470 0.0 102810
08:00+18w11380 0.0 1028146
11:00+23sw22253 0.0 10271169
14:00+26ssw22190 0.0 10272144
17:00+26wsw22185 0.0 10262285
20:00+22wnw34325 0.0 102650
14 may, fri
fri1423:00+19wnw11315 0.0 102611
02:00+16wnw22385 0.0 102711
05:00+15wnw11520 0.0 102711
08:00+20w11450 0.0 1028147
11:00+25sw33250 0.0 10281293
14:00+27sw44220 0.0 10262287
17:00+27w44200 0.0 10262264
20:00+24wsw22290 0.0 102521
15 may, sat
sat1523:00+19wnw35430 0.0 102663
02:00+17nw33483 0.0 102642
05:00+16w11520 0.0 102611
08:00+20wnw11410 0.0 1027157
11:00+25sw22284 0.0 10251314
14:00+28w22195 0.0 10242291
17:00+28wnw32185 0.0 10232539
20:00+25wsw22265 0.0 102312
16 may, sun
sun1623:00+20w33410 0.0 102329
02:00+18nw22540 0.0 102221
05:00+16nw22580 0.0 102315
08:00+21nnw12460 0.0 1024206
11:00+26wnw22310 0.0 10221112
14:00+29w33245 0.0 10212952
17:00+29w44214 0.0 10203177
20:00+24w48404 0.0 1020156
17 may, mon
mon1723:00+20w34422 0.0 102045
02:00+18nnw36541 0.0 102082
05:00+17wnw11565 0.0 102011
08:00+22sw23455 0.0 1021235
11:00+27w24300 0.0 10191591
14:00+29w54278 0.0 10183008
17:00+29wnw352327 0.0 10173196
20:00+22wsw3648100 0.4 1018124